Year,Month,Day,Hour,Minute,Value (Times are PST for temperature in C)
2016,04,30,00,00,8.80
2016,04,30,00,01,8.70
2016,04,30,00,02,8.70
2016,04,30,00,03,8.60
2016,04,30,00,04,8.60
2016,04,30,00,05,8.50
2016,04,30,00,06,8.50
2016,04,30,00,07,8.40
2016,04,30,00,08,8.40
2016,04,30,00,09,8.40
2016,04,30,00,10,8.40
2016,04,30,00,11,8.40
2016,04,30,00,12,8.40
2016,04,30,00,13,8.40
2016,04,30,00,14,8.30
2016,04,30,00,15,8.30
2016,04,30,00,16,8.30
2016,04,30,00,17,8.30
2016,04,30,00,18,8.30
2016,04,30,00,19,8.30
2016,04,30,00,20,8.20
2016,04,30,00,21,8.20
2016,04,30,00,22,8.20
2016,04,30,00,23,8.20
2016,04,30,00,24,8.20
2016,04,30,00,25,8.20
2016,04,30,00,26,8.20
2016,04,30,00,27,8.20
2016,04,30,00,28,8.10
2016,04,30,00,29,8.10
2016,04,30,00,30,8.10
2016,04,30,00,31,8.10
2016,04,30,00,32,8.10
2016,04,30,00,33,8.10
2016,04,30,00,34,8.10
2016,04,30,00,35,8.10
2016,04,30,00,36,8.10
2016,04,30,00,37,8.10
2016,04,30,00,38,8.10
2016,04,30,00,39,8.10
2016,04,30,00,40,8.10
2016,04,30,00,41,8.10
2016,04,30,00,42,8.10
2016,04,30,00,43,8.00
2016,04,30,00,44,8.00
2016,04,30,00,45,8.00
2016,04,30,00,46,7.90
2016,04,30,00,47,7.90
2016,04,30,00,48,7.80
2016,04,30,00,49,7.80
2016,04,30,00,50,7.80
2016,04,30,00,51,7.80
2016,04,30,00,52,7.70
2016,04,30,00,53,7.70
2016,04,30,00,54,7.70
2016,04,30,00,55,7.70
2016,04,30,00,56,7.70
2016,04,30,00,57,7.70
2016,04,30,00,58,7.60
2016,04,30,00,59,7.60
2016,04,30,01,00,7.60
2016,04,30,01,01,7.60
2016,04,30,01,02,7.60
2016,04,30,01,03,7.60
2016,04,30,01,04,7.60
2016,04,30,01,05,7.60
2016,04,30,01,06,7.60
2016,04,30,01,07,7.60
2016,04,30,01,08,7.60
2016,04,30,01,09,7.60
2016,04,30,01,10,7.60
2016,04,30,01,11,7.60
2016,04,30,01,12,7.60
2016,04,30,01,13,7.60
2016,04,30,01,14,7.60
2016,04,30,01,15,7.60
2016,04,30,01,16,7.60
2016,04,30,01,17,7.60
2016,04,30,01,18,7.50
2016,04,30,01,19,7.50
2016,04,30,01,20,7.50
2016,04,30,01,21,7.40
2016,04,30,01,22,7.40
2016,04,30,01,23,7.40
2016,04,30,01,24,7.30
2016,04,30,01,25,7.30
2016,04,30,01,26,7.30
2016,04,30,01,27,7.30
2016,04,30,01,28,7.20
2016,04,30,01,29,7.20
2016,04,30,01,30,7.20
2016,04,30,01,31,7.20
2016,04,30,01,32,7.20
2016,04,30,01,33,7.20
2016,04,30,01,34,7.20
2016,04,30,01,35,7.20
2016,04,30,01,36,7.20
2016,04,30,01,37,7.20
2016,04,30,01,38,7.20
2016,04,30,01,39,7.20
2016,04,30,01,40,7.20
2016,04,30,01,41,7.20
2016,04,30,01,42,7.20
2016,04,30,01,43,7.10
2016,04,30,01,44,7.10
2016,04,30,01,45,7.10
2016,04,30,01,46,7.00
2016,04,30,01,47,6.90
2016,04,30,01,48,6.90
2016,04,30,01,49,6.90
2016,04,30,01,50,6.80
2016,04,30,01,51,6.80
2016,04,30,01,52,6.80
2016,04,30,01,53,6.80
2016,04,30,01,54,6.70
2016,04,30,01,55,6.70
2016,04,30,01,56,6.70
2016,04,30,01,57,6.80
2016,04,30,01,58,6.80
2016,04,30,01,59,6.80
2016,04,30,02,00,6.80
2016,04,30,02,01,6.80
2016,04,30,02,02,6.80
2016,04,30,02,03,6.80
2016,04,30,02,04,6.70
2016,04,30,02,05,6.70
2016,04,30,02,06,6.70
2016,04,30,02,07,6.70
2016,04,30,02,08,6.70
2016,04,30,02,09,6.70
2016,04,30,02,10,6.70
2016,04,30,02,11,6.70
2016,04,30,02,12,6.70
2016,04,30,02,13,6.70
2016,04,30,02,14,6.70
2016,04,30,02,15,6.70
2016,04,30,02,16,6.70
2016,04,30,02,17,6.70
2016,04,30,02,18,6.70
2016,04,30,02,19,6.70
2016,04,30,02,20,6.70
2016,04,30,02,21,6.70
2016,04,30,02,22,6.70
2016,04,30,02,23,6.70
2016,04,30,02,24,6.70
2016,04,30,02,25,6.70
2016,04,30,02,26,6.70
2016,04,30,02,27,6.70
2016,04,30,02,28,6.80
2016,04,30,02,29,6.90
2016,04,30,02,30,7.00
2016,04,30,02,31,7.10
2016,04,30,02,32,7.20
2016,04,30,02,33,7.20
2016,04,30,02,34,7.30
2016,04,30,02,35,7.30
2016,04,30,02,36,7.30
2016,04,30,02,37,7.30
2016,04,30,02,38,7.30
2016,04,30,02,39,7.30
2016,04,30,02,40,7.40
2016,04,30,02,41,7.40
2016,04,30,02,42,7.40
2016,04,30,02,43,7.40
2016,04,30,02,44,7.40
2016,04,30,02,45,7.40
2016,04,30,02,46,7.40
2016,04,30,02,47,7.40
2016,04,30,02,48,7.40
2016,04,30,02,49,7.40
2016,04,30,02,50,7.30
2016,04,30,02,51,7.30
2016,04,30,02,52,7.30
2016,04,30,02,53,7.20
2016,04,30,02,54,7.20
2016,04,30,02,55,7.10
2016,04,30,02,56,7.00
2016,04,30,02,57,6.90
2016,04,30,02,58,6.90
2016,04,30,02,59,6.80
2016,04,30,03,00,6.70
2016,04,30,03,01,6.70
2016,04,30,03,02,6.60
2016,04,30,03,03,6.50
2016,04,30,03,04,6.50
2016,04,30,03,05,6.40
2016,04,30,03,06,6.40
2016,04,30,03,07,6.40
2016,04,30,03,08,6.30
2016,04,30,03,09,6.30
2016,04,30,03,10,6.30
2016,04,30,03,11,6.30
2016,04,30,03,12,6.30
2016,04,30,03,13,6.20
2016,04,30,03,14,6.20
2016,04,30,03,15,6.20
2016,04,30,03,16,6.20
2016,04,30,03,17,6.20
2016,04,30,03,18,6.20
2016,04,30,03,19,6.10
2016,04,30,03,20,6.10
2016,04,30,03,21,6.10
2016,04,30,03,22,6.10
2016,04,30,03,23,6.10
2016,04,30,03,24,6.10
2016,04,30,03,25,6.10
2016,04,30,03,26,6.10
2016,04,30,03,27,6.10
2016,04,30,03,28,6.20
2016,04,30,03,29,6.20
2016,04,30,03,30,6.20
2016,04,30,03,31,6.20
2016,04,30,03,32,6.20
2016,04,30,03,33,6.20
2016,04,30,03,34,6.20
2016,04,30,03,35,6.10
2016,04,30,03,36,6.10
2016,04,30,03,37,6.10
2016,04,30,03,38,6.10
2016,04,30,03,39,6.10
2016,04,30,03,40,6.10
2016,04,30,03,41,6.10
2016,04,30,03,42,6.00
2016,04,30,03,43,6.00
2016,04,30,03,44,5.90
2016,04,30,03,45,5.90
2016,04,30,03,46,5.90
2016,04,30,03,47,6.00
2016,04,30,03,48,6.00
2016,04,30,03,49,6.00
2016,04,30,03,50,6.00
2016,04,30,03,51,6.00
2016,04,30,03,52,6.00
2016,04,30,03,53,6.10
2016,04,30,03,54,6.10
2016,04,30,03,55,6.10
2016,04,30,03,56,6.20
2016,04,30,03,57,6.20
2016,04,30,03,58,6.20
2016,04,30,03,59,6.20
2016,04,30,04,00,6.20
2016,04,30,04,01,6.20
2016,04,30,04,02,6.20
2016,04,30,04,03,6.20
2016,04,30,04,04,6.20
2016,04,30,04,05,6.20
2016,04,30,04,06,6.20
2016,04,30,04,07,6.20
2016,04,30,04,08,6.20
2016,04,30,04,09,6.20
2016,04,30,04,10,6.10
2016,04,30,04,11,6.10
2016,04,30,04,12,6.10
2016,04,30,04,13,6.10
2016,04,30,04,14,6.10
2016,04,30,04,15,6.10
2016,04,30,04,16,6.10
2016,04,30,04,17,6.10
2016,04,30,04,18,6.10
2016,04,30,04,19,6.10
2016,04,30,04,20,6.10
2016,04,30,04,21,6.10
2016,04,30,04,22,6.10
2016,04,30,04,23,6.10
2016,04,30,04,24,6.00
2016,04,30,04,25,6.00
2016,04,30,04,26,6.00
2016,04,30,04,27,6.00
2016,04,30,04,28,6.10
2016,04,30,04,29,6.10
2016,04,30,04,30,6.10
2016,04,30,04,31,6.10
2016,04,30,04,32,6.00
2016,04,30,04,33,6.00
2016,04,30,04,34,6.00
2016,04,30,04,35,6.00
2016,04,30,04,36,6.00
2016,04,30,04,37,6.00
2016,04,30,04,38,6.00
2016,04,30,04,39,5.90
2016,04,30,04,40,5.90
2016,04,30,04,41,5.90
2016,04,30,04,42,5.90
2016,04,30,04,43,5.90
2016,04,30,04,44,5.90
2016,04,30,04,45,5.90
2016,04,30,04,46,5.90
2016,04,30,04,47,5.90
2016,04,30,04,48,5.90
2016,04,30,04,49,5.90
2016,04,30,04,50,5.90
2016,04,30,04,51,5.90
2016,04,30,04,52,5.80
2016,04,30,04,53,5.80
2016,04,30,04,54,5.80
2016,04,30,04,55,5.80
2016,04,30,04,56,5.80
2016,04,30,04,57,5.80
2016,04,30,04,58,5.80
2016,04,30,04,59,5.80
2016,04,30,05,00,5.80
2016,04,30,05,01,5.80
2016,04,30,05,02,5.80
2016,04,30,05,03,5.80
2016,04,30,05,04,5.90
2016,04,30,05,05,5.90
2016,04,30,05,06,5.90
2016,04,30,05,07,5.90
2016,04,30,05,08,5.90
2016,04,30,05,09,5.90
2016,04,30,05,10,5.90
2016,04,30,05,11,5.90
2016,04,30,05,12,5.90
2016,04,30,05,13,5.90
2016,04,30,05,14,5.90
2016,04,30,05,15,5.90
2016,04,30,05,16,5.90
2016,04,30,05,17,5.90
2016,04,30,05,18,5.90
2016,04,30,05,19,5.90
2016,04,30,05,20,5.90
2016,04,30,05,21,5.90
2016,04,30,05,22,5.90
2016,04,30,05,23,5.90
2016,04,30,05,24,5.80
2016,04,30,05,25,5.80
2016,04,30,05,26,5.80
2016,04,30,05,27,5.80
2016,04,30,05,28,5.80
2016,04,30,05,29,5.80
2016,04,30,05,30,5.80
2016,04,30,05,31,5.80
2016,04,30,05,32,5.90
2016,04,30,05,33,5.90
2016,04,30,05,34,5.80
2016,04,30,05,35,5.80
2016,04,30,05,36,5.80
2016,04,30,05,37,5.80
2016,04,30,05,38,5.80
2016,04,30,05,39,5.80
2016,04,30,05,40,5.70
2016,04,30,05,41,5.70
2016,04,30,05,42,5.70
2016,04,30,05,43,5.70
2016,04,30,05,44,5.70
2016,04,30,05,45,5.70
2016,04,30,05,46,5.70
2016,04,30,05,47,5.70
2016,04,30,05,48,5.70
2016,04,30,05,49,5.70
2016,04,30,05,50,5.80
2016,04,30,05,51,5.80
2016,04,30,05,52,5.80
2016,04,30,05,53,5.80
2016,04,30,05,54,5.90
2016,04,30,05,55,5.90
2016,04,30,05,56,6.00
2016,04,30,05,57,6.10
2016,04,30,05,58,6.20
2016,04,30,05,59,6.20
2016,04,30,06,00,6.30
2016,04,30,06,01,6.40
2016,04,30,06,02,6.40
2016,04,30,06,03,6.50
2016,04,30,06,04,6.50
2016,04,30,06,05,6.50
2016,04,30,06,06,6.60
2016,04,30,06,07,6.60
2016,04,30,06,08,6.60
2016,04,30,06,09,6.60
2016,04,30,06,10,6.70
2016,04,30,06,11,6.70
2016,04,30,06,12,6.80
2016,04,30,06,13,6.80
2016,04,30,06,14,6.80
2016,04,30,06,15,6.80
2016,04,30,06,16,6.80
2016,04,30,06,17,6.80
2016,04,30,06,18,6.70
2016,04,30,06,19,6.70
2016,04,30,06,20,6.70
2016,04,30,06,21,6.70
2016,04,30,06,22,6.70
2016,04,30,06,23,6.70
2016,04,30,06,24,6.80
2016,04,30,06,25,6.80
2016,04,30,06,26,6.80
2016,04,30,06,27,6.80
2016,04,30,06,28,6.80
2016,04,30,06,29,6.80
2016,04,30,06,30,6.80
2016,04,30,06,31,6.80
2016,04,30,06,32,6.80
2016,04,30,06,33,6.80
2016,04,30,06,34,6.90
2016,04,30,06,35,6.90
2016,04,30,06,36,7.00
2016,04,30,06,37,7.00
2016,04,30,06,38,7.10
2016,04,30,06,39,7.10
2016,04,30,06,40,7.10
2016,04,30,06,41,7.10
2016,04,30,06,42,7.10
2016,04,30,06,43,7.20
2016,04,30,06,44,7.20
2016,04,30,06,45,7.30
2016,04,30,06,46,7.30
2016,04,30,06,47,7.30
2016,04,30,06,48,7.40
2016,04,30,06,49,7.40
2016,04,30,06,50,7.40
2016,04,30,06,51,7.40
2016,04,30,06,52,7.50
2016,04,30,06,53,7.50
2016,04,30,06,54,7.60
2016,04,30,06,55,7.70
2016,04,30,06,56,7.70
2016,04,30,06,57,7.80
2016,04,30,06,58,7.80
2016,04,30,06,59,7.80
2016,04,30,07,00,7.90
2016,04,30,07,01,7.90
2016,04,30,07,02,7.90
2016,04,30,07,03,7.90
2016,04,30,07,04,7.90
2016,04,30,07,05,8.00
2016,04,30,07,06,8.00
2016,04,30,07,07,8.10
2016,04,30,07,08,8.10
2016,04,30,07,09,8.10
2016,04,30,07,10,8.10
2016,04,30,07,11,8.20
2016,04,30,07,12,8.20
2016,04,30,07,13,8.20
2016,04,30,07,14,8.20
2016,04,30,07,15,8.20
2016,04,30,07,16,8.20
2016,04,30,07,17,8.30
2016,04,30,07,18,8.30
2016,04,30,07,19,8.30
2016,04,30,07,20,8.30
2016,04,30,07,21,8.40
2016,04,30,07,22,8.40
2016,04,30,07,23,8.40
2016,04,30,07,24,8.40
2016,04,30,07,25,8.50
2016,04,30,07,26,8.50
2016,04,30,07,27,8.50
2016,04,30,07,28,8.50
2016,04,30,07,29,8.50
2016,04,30,07,30,8.60
2016,04,30,07,31,8.60
2016,04,30,07,32,8.60
2016,04,30,07,33,8.70
2016,04,30,07,34,8.70
2016,04,30,07,35,8.70
2016,04,30,07,36,8.80
2016,04,30,07,37,8.80
2016,04,30,07,38,8.80
2016,04,30,07,39,8.80
2016,04,30,07,40,8.90
2016,04,30,07,41,8.90
2016,04,30,07,42,8.90
2016,04,30,07,43,9.00
2016,04,30,07,44,9.00
2016,04,30,07,45,9.10
2016,04,30,07,46,9.10
2016,04,30,07,47,9.10
2016,04,30,07,48,9.20
2016,04,30,07,49,9.20
2016,04,30,07,50,9.20
2016,04,30,07,51,9.20
2016,04,30,07,52,9.30
2016,04,30,07,53,9.30
2016,04,30,07,54,9.30
2016,04,30,07,55,9.30
2016,04,30,07,56,9.40
2016,04,30,07,57,9.40
2016,04,30,07,58,9.50
2016,04,30,07,59,9.50
2016,04,30,08,00,9.50
2016,04,30,08,01,9.50
2016,04,30,08,02,9.60
2016,04,30,08,03,9.60
2016,04,30,08,04,9.60
2016,04,30,08,05,9.60
2016,04,30,08,06,9.60
2016,04,30,08,07,9.70
2016,04,30,08,08,9.70
2016,04,30,08,09,9.70
2016,04,30,08,10,9.80
2016,04,30,08,11,9.80
2016,04,30,08,12,9.80
2016,04,30,08,13,9.90
2016,04,30,08,14,9.90
2016,04,30,08,15,10.00
2016,04,30,08,16,10.10
2016,04,30,08,17,10.20
2016,04,30,08,18,10.20
2016,04,30,08,19,10.30
2016,04,30,08,20,10.40
2016,04,30,08,21,10.40
2016,04,30,08,22,10.50
2016,04,30,08,23,10.50
2016,04,30,08,24,10.60
2016,04,30,08,25,10.60
2016,04,30,08,26,10.60
2016,04,30,08,27,10.70
2016,04,30,08,28,10.80
2016,04,30,08,29,10.80
2016,04,30,08,30,10.90
2016,04,30,08,31,11.00
2016,04,30,08,32,11.10
2016,04,30,08,33,11.20
2016,04,30,08,34,11.40
2016,04,30,08,35,11.50
2016,04,30,08,36,11.70
2016,04,30,08,37,11.80
2016,04,30,08,38,11.90
2016,04,30,08,39,12.10
2016,04,30,08,40,12.20
2016,04,30,08,41,12.30
2016,04,30,08,42,12.40
2016,04,30,08,43,12.40
2016,04,30,08,44,12.50
2016,04,30,08,45,12.50
2016,04,30,08,46,12.60
2016,04,30,08,47,12.50
2016,04,30,08,48,12.50
2016,04,30,08,49,12.40
2016,04,30,08,50,12.40
2016,04,30,08,51,12.30
2016,04,30,08,52,12.30
2016,04,30,08,53,12.20
2016,04,30,08,54,12.20
2016,04,30,08,55,12.20
2016,04,30,08,56,12.20
2016,04,30,08,57,12.20
2016,04,30,08,58,12.20
2016,04,30,08,59,12.20
2016,04,30,09,00,12.30
2016,04,30,09,01,12.40
2016,04,30,09,02,12.50
2016,04,30,09,03,12.50
2016,04,30,09,04,12.60
2016,04,30,09,05,12.70
2016,04,30,09,06,12.70
2016,04,30,09,07,12.80
2016,04,30,09,08,12.80
2016,04,30,09,09,12.80
2016,04,30,09,10,12.80
2016,04,30,09,11,12.70
2016,04,30,09,12,12.70
2016,04,30,09,13,12.70
2016,04,30,09,14,12.70
2016,04,30,09,15,12.80
2016,04,30,09,16,12.90
2016,04,30,09,17,12.90
2016,04,30,09,18,13.00
2016,04,30,09,19,13.10
2016,04,30,09,20,13.10
2016,04,30,09,21,13.10
2016,04,30,09,22,13.10
2016,04,30,09,23,13.10
2016,04,30,09,24,13.20
2016,04,30,09,25,13.20
2016,04,30,09,26,13.20
2016,04,30,09,27,13.20
2016,04,30,09,28,13.20
2016,04,30,09,29,13.20
2016,04,30,09,30,13.20
2016,04,30,09,31,13.20
2016,04,30,09,32,13.20
2016,04,30,09,33,13.30
2016,04,30,09,34,13.30
2016,04,30,09,35,13.40
2016,04,30,09,36,13.50
2016,04,30,09,37,13.60
2016,04,30,09,38,13.70
2016,04,30,09,39,13.70
2016,04,30,09,40,13.80
2016,04,30,09,41,13.90
2016,04,30,09,42,13.90
2016,04,30,09,43,13.90
2016,04,30,09,44,13.80
2016,04,30,09,45,13.80
2016,04,30,09,46,13.80
2016,04,30,09,47,13.80
2016,04,30,09,48,13.80
2016,04,30,09,49,13.80
2016,04,30,09,50,13.80
2016,04,30,09,51,13.80
2016,04,30,09,52,13.80
2016,04,30,09,53,13.70
2016,04,30,09,54,13.70
2016,04,30,09,55,13.60
2016,04,30,09,56,13.60
2016,04,30,09,57,13.50
2016,04,30,09,58,13.40
2016,04,30,09,59,13.40
2016,04,30,10,00,13.40
2016,04,30,10,01,13.50
2016,04,30,10,02,13.60
2016,04,30,10,03,13.60
2016,04,30,10,04,13.60
2016,04,30,10,05,13.60
2016,04,30,10,06,13.60
2016,04,30,10,07,13.50
2016,04,30,10,08,13.50
2016,04,30,10,09,13.40
2016,04,30,10,10,13.40
2016,04,30,10,11,13.40
2016,04,30,10,12,13.50
2016,04,30,10,13,13.60
2016,04,30,10,14,13.70
2016,04,30,10,15,13.80
2016,04,30,10,16,13.80
2016,04,30,10,17,13.80
2016,04,30,10,18,13.70
2016,04,30,10,19,13.70
2016,04,30,10,20,13.60
2016,04,30,10,21,13.60
2016,04,30,10,22,13.50
2016,04,30,10,23,13.40
2016,04,30,10,24,13.40
2016,04,30,10,25,13.40
2016,04,30,10,26,13.40
2016,04,30,10,27,13.50
2016,04,30,10,28,13.60
2016,04,30,10,29,13.60
2016,04,30,10,30,13.70
2016,04,30,10,31,13.80
2016,04,30,10,32,13.80
2016,04,30,10,33,13.90
2016,04,30,10,34,14.00
2016,04,30,10,35,14.10
2016,04,30,10,36,14.20
2016,04,30,10,37,14.20
2016,04,30,10,38,14.30
2016,04,30,10,39,14.30
2016,04,30,10,40,14.30
2016,04,30,10,41,14.30
2016,04,30,10,42,14.40
2016,04,30,10,43,14.40
2016,04,30,10,44,14.40
2016,04,30,10,45,14.40
2016,04,30,10,46,14.40
2016,04,30,10,47,14.40
2016,04,30,10,48,14.40
2016,04,30,10,49,14.30
2016,04,30,10,50,14.30
2016,04,30,10,51,14.30
2016,04,30,10,52,14.30
2016,04,30,10,53,14.30
2016,04,30,10,54,14.40
2016,04,30,10,55,14.40
2016,04,30,10,56,14.50
2016,04,30,10,57,14.60
2016,04,30,10,58,14.60
2016,04,30,10,59,14.60
2016,04,30,11,00,14.70
2016,04,30,11,01,14.60
2016,04,30,11,02,14.50
2016,04,30,11,03,14.40
2016,04,30,11,04,14.40
2016,04,30,11,05,14.40
2016,04,30,11,06,14.30
2016,04,30,11,07,14.30
2016,04,30,11,08,14.20
2016,04,30,11,09,14.30
2016,04,30,11,10,14.20
2016,04,30,11,11,14.10
2016,04,30,11,12,14.20
2016,04,30,11,13,14.20
2016,04,30,11,14,14.20
2016,04,30,11,15,14.30
2016,04,30,11,16,14.40
2016,04,30,11,17,14.40
2016,04,30,11,18,14.50
2016,04,30,11,19,14.50
2016,04,30,11,20,14.60
2016,04,30,11,21,14.60
2016,04,30,11,22,14.60
2016,04,30,11,23,14.50
2016,04,30,11,24,14.40
2016,04,30,11,25,14.40
2016,04,30,11,26,14.30
2016,04,30,11,27,14.30
2016,04,30,11,28,14.40
2016,04,30,11,29,14.40
2016,04,30,11,30,14.50
2016,04,30,11,31,14.50
2016,04,30,11,32,14.60
2016,04,30,11,33,14.70
2016,04,30,11,34,14.70
2016,04,30,11,35,14.70
2016,04,30,11,36,14.70
2016,04,30,11,37,14.70
2016,04,30,11,38,14.70
2016,04,30,11,39,14.80
2016,04,30,11,40,14.80
2016,04,30,11,41,14.90
2016,04,30,11,42,14.80
2016,04,30,11,43,14.70
2016,04,30,11,44,14.70
2016,04,30,11,45,14.60
2016,04,30,11,46,14.60
2016,04,30,11,47,14.60
2016,04,30,11,48,14.70
2016,04,30,11,49,14.80
2016,04,30,11,50,14.80
2016,04,30,11,51,14.90
2016,04,30,11,52,14.90
2016,04,30,11,53,15.00
2016,04,30,11,54,15.10
2016,04,30,11,55,15.10
2016,04,30,11,56,15.20
2016,04,30,11,57,15.30
2016,04,30,11,58,15.30
2016,04,30,11,59,15.20
2016,04,30,12,00,15.00
2016,04,30,12,01,14.90
2016,04,30,12,02,14.80
2016,04,30,12,03,14.70
2016,04,30,12,04,14.70
2016,04,30,12,05,14.80
2016,04,30,12,06,14.80
2016,04,30,12,07,14.90
2016,04,30,12,08,14.90
2016,04,30,12,09,15.00
2016,04,30,12,10,15.10
2016,04,30,12,11,15.00
2016,04,30,12,12,15.10
2016,04,30,12,13,15.10
2016,04,30,12,14,15.20
2016,04,30,12,15,15.30
2016,04,30,12,16,15.40
2016,04,30,12,17,15.50
2016,04,30,12,18,15.60
2016,04,30,12,19,15.70
2016,04,30,12,20,15.70
2016,04,30,12,21,15.70
2016,04,30,12,22,15.70
2016,04,30,12,23,15.70
2016,04,30,12,24,15.70
2016,04,30,12,25,15.70
2016,04,30,12,26,15.80
2016,04,30,12,27,15.80
2016,04,30,12,28,15.90
2016,04,30,12,29,15.90
2016,04,30,12,30,15.70
2016,04,30,12,31,15.70
2016,04,30,12,32,15.70
2016,04,30,12,33,15.70
2016,04,30,12,34,15.70
2016,04,30,12,35,15.60
2016,04,30,12,36,15.60
2016,04,30,12,37,15.60
2016,04,30,12,38,15.60
2016,04,30,12,39,15.60
2016,04,30,12,40,15.80
2016,04,30,12,41,15.90
2016,04,30,12,42,16.00
2016,04,30,12,43,16.10
2016,04,30,12,44,16.10
2016,04,30,12,45,16.20
2016,04,30,12,46,16.20
2016,04,30,12,47,16.20
2016,04,30,12,48,16.20
2016,04,30,12,49,16.20
2016,04,30,12,50,16.20
2016,04,30,12,51,16.30
2016,04,30,12,52,16.30
2016,04,30,12,53,16.40
2016,04,30,12,54,16.40
2016,04,30,12,55,16.40
2016,04,30,12,56,16.40
2016,04,30,12,57,16.40
2016,04,30,12,58,16.50
2016,04,30,12,59,16.50
2016,04,30,13,00,16.40
2016,04,30,13,01,16.40
2016,04,30,13,02,16.40
2016,04,30,13,03,16.50
2016,04,30,13,04,16.50
2016,04,30,13,05,16.40
2016,04,30,13,06,16.40
2016,04,30,13,07,16.40
2016,04,30,13,08,16.40
2016,04,30,13,09,16.30
2016,04,30,13,10,16.40
2016,04,30,13,11,16.40
2016,04,30,13,12,16.50
2016,04,30,13,13,16.60
2016,04,30,13,14,16.80
2016,04,30,13,15,16.90
2016,04,30,13,16,16.90
2016,04,30,13,17,16.90
2016,04,30,13,18,16.90
2016,04,30,13,19,17.00
2016,04,30,13,20,17.10
2016,04,30,13,21,17.20
2016,04,30,13,22,17.10
2016,04,30,13,23,17.00
2016,04,30,13,24,17.00
2016,04,30,13,25,17.00
2016,04,30,13,26,17.00
2016,04,30,13,27,17.00
2016,04,30,13,28,16.90
2016,04,30,13,29,16.90
2016,04,30,13,30,17.00
2016,04,30,13,31,17.10
2016,04,30,13,32,17.20
2016,04,30,13,33,17.10
2016,04,30,13,34,17.10
2016,04,30,13,35,17.00
2016,04,30,13,36,17.00
2016,04,30,13,37,17.10
2016,04,30,13,38,17.30
2016,04,30,13,39,17.50
2016,04,30,13,40,17.60
2016,04,30,13,41,17.60
2016,04,30,13,42,17.50
2016,04,30,13,43,17.40
2016,04,30,13,44,17.20
2016,04,30,13,45,17.10
2016,04,30,13,46,17.10
2016,04,30,13,47,17.10
2016,04,30,13,48,17.10
2016,04,30,13,49,17.00
2016,04,30,13,50,17.00
2016,04,30,13,51,17.10
2016,04,30,13,52,17.20
2016,04,30,13,53,17.20
2016,04,30,13,54,17.10
2016,04,30,13,55,17.20
2016,04,30,13,56,17.20
2016,04,30,13,57,17.30
2016,04,30,13,58,17.30
2016,04,30,13,59,17.30
2016,04,30,14,00,17.20
2016,04,30,14,01,17.20
2016,04,30,14,02,17.20
2016,04,30,14,03,17.10
2016,04,30,14,04,17.00
2016,04,30,14,05,16.80
2016,04,30,14,06,16.70
2016,04,30,14,07,16.70
2016,04,30,14,08,16.70
2016,04,30,14,09,16.60
2016,04,30,14,10,16.60
2016,04,30,14,11,16.60
2016,04,30,14,12,16.50
2016,04,30,14,13,16.40
2016,04,30,14,14,16.30
2016,04,30,14,15,16.30
2016,04,30,14,16,16.40
2016,04,30,14,17,16.30
2016,04,30,14,18,16.30
2016,04,30,14,19,16.30
2016,04,30,14,20,16.30
2016,04,30,14,21,16.30
2016,04,30,14,22,16.30
2016,04,30,14,23,16.40
2016,04,30,14,24,16.40
2016,04,30,14,25,16.40
2016,04,30,14,26,16.40
2016,04,30,14,27,16.40
2016,04,30,14,28,16.50
2016,04,30,14,29,16.50
2016,04,30,14,30,16.50
2016,04,30,14,31,16.40
2016,04,30,14,32,16.40
2016,04,30,14,33,16.40
2016,04,30,14,34,16.40
2016,04,30,14,35,16.40
2016,04,30,14,36,16.40
2016,04,30,14,37,16.50
2016,04,30,14,38,16.60
2016,04,30,14,39,16.60
2016,04,30,14,40,16.70
2016,04,30,14,41,16.70
2016,04,30,14,42,16.80
2016,04,30,14,43,16.90
2016,04,30,14,44,17.00
2016,04,30,14,45,17.10
2016,04,30,14,46,17.10
2016,04,30,14,47,17.20
2016,04,30,14,48,17.20
2016,04,30,14,49,17.30
2016,04,30,14,50,17.40
2016,04,30,14,51,17.60
2016,04,30,14,52,17.60
2016,04,30,14,53,17.70
2016,04,30,14,54,17.60
2016,04,30,14,55,17.60
2016,04,30,14,56,17.60
2016,04,30,14,57,17.50
2016,04,30,14,58,17.50
2016,04,30,14,59,17.40
2016,04,30,15,00,17.40
2016,04,30,15,01,17.50
2016,04,30,15,02,17.50
2016,04,30,15,03,17.40
2016,04,30,15,04,17.40
2016,04,30,15,05,17.40
2016,04,30,15,06,17.40
2016,04,30,15,07,17.40
2016,04,30,15,08,17.40
2016,04,30,15,09,17.40
2016,04,30,15,10,17.40
2016,04,30,15,11,17.50
2016,04,30,15,12,17.60
2016,04,30,15,13,17.60
2016,04,30,15,14,17.80
2016,04,30,15,15,17.80
2016,04,30,15,16,17.80
2016,04,30,15,17,17.70
2016,04,30,15,18,17.60
2016,04,30,15,19,17.60
2016,04,30,15,20,17.50
2016,04,30,15,21,17.50
2016,04,30,15,22,17.40
2016,04,30,15,23,17.30
2016,04,30,15,24,17.30
2016,04,30,15,25,17.30
2016,04,30,15,26,17.20
2016,04,30,15,27,17.20
2016,04,30,15,28,17.20
2016,04,30,15,29,17.20
2016,04,30,15,30,17.20
2016,04,30,15,31,17.30
2016,04,30,15,32,17.40
2016,04,30,15,33,17.40
2016,04,30,15,34,17.40
2016,04,30,15,35,17.40
2016,04,30,15,36,17.30
2016,04,30,15,37,17.30
2016,04,30,15,38,17.30
2016,04,30,15,39,17.30
2016,04,30,15,40,17.40
2016,04,30,15,41,17.50
2016,04,30,15,42,17.70
2016,04,30,15,43,17.80
2016,04,30,15,44,17.80
2016,04,30,15,45,17.90
2016,04,30,15,46,18.00
2016,04,30,15,47,17.90
2016,04,30,15,48,17.90
2016,04,30,15,49,17.90
2016,04,30,15,50,17.90
2016,04,30,15,51,17.90
2016,04,30,15,52,18.00
2016,04,30,15,53,18.10
2016,04,30,15,54,18.10
2016,04,30,15,55,18.00
2016,04,30,15,56,18.10
2016,04,30,15,57,18.10
2016,04,30,15,58,18.10
2016,04,30,15,59,18.10
2016,04,30,16,00,18.20
2016,04,30,16,01,18.10
2016,04,30,16,02,18.10
2016,04,30,16,03,18.20
2016,04,30,16,04,18.30
2016,04,30,16,05,18.40
2016,04,30,16,06,18.40
2016,04,30,16,07,18.40
2016,04,30,16,08,18.30
2016,04,30,16,09,18.30
2016,04,30,16,10,18.40
2016,04,30,16,11,18.40
2016,04,30,16,12,18.40
2016,04,30,16,13,18.50
2016,04,30,16,14,18.60
2016,04,30,16,15,18.70
2016,04,30,16,16,18.60
2016,04,30,16,17,18.60
2016,04,30,16,18,18.50
2016,04,30,16,19,18.50
2016,04,30,16,20,18.40
2016,04,30,16,21,18.20
2016,04,30,16,22,18.10
2016,04,30,16,23,18.10
2016,04,30,16,24,18.00
2016,04,30,16,25,17.90
2016,04,30,16,26,17.90
2016,04,30,16,27,17.80
2016,04,30,16,28,17.80
2016,04,30,16,29,17.80
2016,04,30,16,30,17.80
2016,04,30,16,31,17.70
2016,04,30,16,32,17.70
2016,04,30,16,33,17.60
2016,04,30,16,34,17.50
2016,04,30,16,35,17.50
2016,04,30,16,36,17.50
2016,04,30,16,37,17.40
2016,04,30,16,38,17.40
2016,04,30,16,39,17.40
2016,04,30,16,40,17.50
2016,04,30,16,41,17.50
2016,04,30,16,42,17.60
2016,04,30,16,43,17.60
2016,04,30,16,44,17.60
2016,04,30,16,45,17.60
2016,04,30,16,46,17.60
2016,04,30,16,47,17.60
2016,04,30,16,48,17.60
2016,04,30,16,49,17.50
2016,04,30,16,50,17.50
2016,04,30,16,51,17.60
2016,04,30,16,52,17.60
2016,04,30,16,53,17.60
2016,04,30,16,54,17.60
2016,04,30,16,55,17.80
2016,04,30,16,56,17.80
2016,04,30,16,57,17.80
2016,04,30,16,58,17.80
2016,04,30,16,59,17.90
2016,04,30,17,00,17.90
2016,04,30,17,01,17.90
2016,04,30,17,02,17.80
2016,04,30,17,03,17.80
2016,04,30,17,04,17.80
2016,04,30,17,05,17.90
2016,04,30,17,06,17.90
2016,04,30,17,07,18.00
2016,04,30,17,08,18.00
2016,04,30,17,09,17.90
2016,04,30,17,10,18.00
2016,04,30,17,11,18.00
2016,04,30,17,12,18.10
2016,04,30,17,13,18.10
2016,04,30,17,14,18.20
2016,04,30,17,15,18.20
2016,04,30,17,16,18.20
2016,04,30,17,17,18.30
2016,04,30,17,18,18.20
2016,04,30,17,19,18.20
2016,04,30,17,20,18.20
2016,04,30,17,21,18.20
2016,04,30,17,22,18.20
2016,04,30,17,23,18.20
2016,04,30,17,24,18.20
2016,04,30,17,25,18.10
2016,04,30,17,26,18.10
2016,04,30,17,27,18.00
2016,04,30,17,28,17.90
2016,04,30,17,29,17.90
2016,04,30,17,30,17.80
2016,04,30,17,31,17.90
2016,04,30,17,32,17.90
2016,04,30,17,33,17.90
2016,04,30,17,34,18.00
2016,04,30,17,35,18.10
2016,04,30,17,36,18.10
2016,04,30,17,37,18.20
2016,04,30,17,38,18.30
2016,04,30,17,39,18.30
2016,04,30,17,40,18.30